[Date Prev][Date Next][Thread Prev][Thread Next] - [Date Index][Thread Index][Author Index]
2 Line ISS Keps 8-4
- Subject: [sarex] 2 Line ISS Keps 8-4
- From: "Dave Larsen PhD" <doc@xxxxxxxxxxx>
- Date: Sun, 4 Aug 2002 03:17:25 -0700
ISS
1 25544U 98067A 02216.11638889 .00025906 00000-0 35338-3 0 106
2 25544 51.6353 172.3105 0018028 100.5663 82.2007 15.57139093211505
----
Via the sarex mailing list at AMSAT.ORG courtesy of AMSAT-NA.
To unsubscribe, send "unsubscribe sarex" to Majordomo@amsat.org
AMSAT Home